Saint David, ME

9:38 AM EST on February 22, 2017 (GMT -0500)
Northern Aroostook Regional

Weather History for KFVE - November, 2013

Change the Weather History Date:

Tuesday, November 5, 2013

  Actual Average Record
Temperature  
Mean Temperature 29 °F 35 °F  
Max Temperature 38 °F 41 °F 64 °F (2008)
Min Temperature 20 °F 28 °F 19 °F (2002)
Degree Days  
Heating Degree Days 36    
Month to date heating degree days 149  
Since 1 July heating degree days 1220  
Cooling Degree Days 0    
Month to date cooling degree days 0  
Year to date cooling degree days 139  
Moisture  
Dew Point 18 °F    
Average Humidity 70    
Maximum Humidity 93    
Minimum Humidity 41    
Precipitation  
Precipitation 0.00 in 0.09 in 0.53 in (2010)
Month to date precipitation 0.17 0.46  
Year to date precipitation 30.60 28.58  
Sea Level Pressure  
Sea Level Pressure 30.57 in    
Wind  
Wind Speed 6 mph (SSE)    
Max Wind Speed 15 mph    
Max Gust Speed 22 mph    
Visibility 9 miles    
Events Fog    
T = Trace of Precipitation, MM = Missing Value Source: NWS Daily Summary

Daily Weather History Graph

Daily Weather History Graph

Search for Another Location

Airport or City:

Trip Planner

Search our weather history database for the weather conditions in past years. The results will help you decide how hot, cold, wet, or windy it might be!

Date:

Astronomy

Nov. 05, 2013 Rise Set
Actual Time 6:22 AM EST 4:10 PM EST
Civil Twilight 5:50 AM EST 4:42 PM EST
Nautical Twilight 5:13 AM EST 5:18 PM EST
Astronomical Twilight 4:38 AM EST 5:54 PM EST
Moon 8:40 AM EST (11/5) 6:01 PM EST (11/5)
Length of Visible Light 10h 52m
Length of Day
9h 47m
Waxing Crescent, 6% of the Moon is Illuminated
Nov 5
Waxing Crescent
Nov 10
First Quarter
Nov 17
Full
Nov 25
Last Quarter
Dec 2
New

Hourly Weather History & Observations

Time (EST) Temp. Windchill Dew Point Humidity Pressure Visibility Wind Dir Wind Speed Gust Speed Precip Events Conditions
12:53 AM 24.1 °F - 14.0 °F 65% 30.69 in 10.0 mi Calm Calm - N/A   Clear
1:53 AM 23.0 °F - 14.0 °F 68% 30.69 in 10.0 mi Calm Calm - N/A   Clear
2:53 AM 23.0 °F - 15.1 °F 72% 30.68 in 10.0 mi Calm Calm - N/A   Clear
3:53 AM 23.0 °F 17.0 °F 16.0 °F 74% 30.67 in 10.0 mi SE 4.6 mph - N/A   Clear
4:53 AM 21.0 °F 14.6 °F 17.1 °F 85% 30.67 in 10.0 mi SSE 4.6 mph - N/A   Clear
5:53 AM 21.0 °F - 19.0 °F 92% 30.67 in 10.0 mi Calm Calm - N/A   Clear
6:07 AM 21.2 °F - 19.4 °F 93% 30.63 in 10.0 mi Calm Calm - N/A   Scattered Clouds
6:22 AM 21.2 °F - 19.4 °F 93% 30.62 in 2.0 mi Calm Calm - N/A   Mostly Cloudy
6:24 AM 21.2 °F - 19.4 °F 93% 30.62 in 1.2 mi Calm Calm - N/A   Mostly Cloudy
6:32 AM 21.2 °F - 19.4 °F 93% 30.62 in 0.5 mi Calm Calm - N/A Fog Light Freezing Fog
6:53 AM 21.9 °F 17.2 °F 19.9 °F 92% 30.67 in 2.5 mi East 3.5 mph - N/A   Overcast
7:00 AM 21.2 °F 16.4 °F 19.4 °F 93% 30.62 in 9.0 mi ESE 3.5 mph - N/A   Overcast
7:25 AM 23.0 °F 17.0 °F 21.2 °F 93% 30.62 in 10.0 mi SE 4.6 mph - N/A   Overcast
7:53 AM 23.0 °F 18.4 °F 19.9 °F 88% 30.66 in 10.0 mi ESE 3.5 mph - N/A   Mostly Cloudy
8:53 AM 26.1 °F 18.4 °F 21.0 °F 81% 30.66 in 10.0 mi SE 6.9 mph - N/A   Clear
9:53 AM 28.0 °F 20.0 °F 19.0 °F 69% 30.62 in 10.0 mi South 8.1 mph - N/A   Mostly Cloudy
10:53 AM 32.0 °F 24.2 °F 19.9 °F 61% 30.61 in 10.0 mi South 9.2 mph - N/A   Clear
11:53 AM 35.1 °F 26.9 °F 17.1 °F 48% 30.56 in 10.0 mi South 11.5 mph - N/A   Clear
12:53 PM 36.0 °F 29.0 °F 15.1 °F 43% 30.54 in 10.0 mi South 9.2 mph - N/A   Clear
1:53 PM 37.0 °F 29.3 °F 16.0 °F 42% 30.52 in 10.0 mi South 11.5 mph 16.1 mph N/A   Clear
2:53 PM 37.0 °F 28.9 °F 17.1 °F 44% 30.49 in 10.0 mi South 12.7 mph - N/A   Clear
3:53 PM 36.0 °F 29.6 °F 14.0 °F 41% 30.48 in 10.0 mi South 8.1 mph - N/A   Clear
4:53 PM 34.0 °F 26.6 °F 15.1 °F 46% 30.48 in 10.0 mi South 9.2 mph - N/A   Mostly Cloudy
5:53 PM 34.0 °F 26.6 °F 17.1 °F 50% 30.47 in 10.0 mi South 9.2 mph - N/A   Overcast
6:53 PM 32.0 °F 25.6 °F 18.0 °F 56% 30.46 in 10.0 mi SSE 6.9 mph - N/A   Partly Cloudy
7:53 PM 32.0 °F 24.2 °F 19.9 °F 61% 30.44 in 10.0 mi SSE 9.2 mph - N/A   Scattered Clouds
8:53 PM 32.0 °F 25.6 °F 21.9 °F 66% 30.43 in 10.0 mi SSE 6.9 mph - N/A   Mostly Cloudy
9:53 PM 32.0 °F 27.5 °F 23.0 °F 69% 30.42 in 10.0 mi South 4.6 mph - N/A   Overcast
10:53 PM 33.1 °F 26.9 °F 23.0 °F 66% 30.40 in 10.0 mi South 6.9 mph - N/A   Overcast
11:53 PM 33.1 °F 26.9 °F 24.1 °F 70% 30.38 in 10.0 mi South 6.9 mph - N/A   Overcast